Location: Chippewa Lake
(41.0698°N, 81.9010°W)
Time: 12:19:50
(UTC+00:00)

Envisat - Pass Details

Date: 01 June 2023
Orbit: 763 x 764 km, 98.2° (Epoch: 21 September)

Event Time Altitude Azimuth Distance (km) Brightness Sun altitude
Rises 08:43:28 0° 21° (NNE) 3,236 7.5 -12.0°
Reaches altitude 10° 08:45:57 10° 29° (NNE) 2,306 6.8 -11.6°
Maximum altitude 08:50:40 38° 97° (E) 1,158 4.3 -11.0°
Drops below altitude 10° 08:55:20 10° 165° (SSE) 2,292 5.2 -10.3°
Sets 08:57:47 0° 174° (S) 3,214 5.9 -10.0°
